Tracking 28052 objects as of 24-Sep-2023
HD Live streaming from Space Station
objects crossing your sky now

STARLINK-6216

Track STARLINK-6216 now!
10-day predictions
STARLINK-6216 is classified as:


NORAD ID: 56893
Int'l Code: 2023-083T
Perigee: 565.4 km
Apogee: 567.0 km
Inclination: 43.0 °
Period: 95.8 minutes
Semi major axis: 6937 km
RCS: Unknown
Launch date: June 12, 2023
Source: United States (US)
Launch site: AIR FORCE EASTERN TEST RANGE (AFETR)
Your satellite tracking list
Your tracking list is empty




NASA's NSSDC Master Catalog

Two Line Element Set (TLE):
1 56893U 23083T   23266.52170361  .00002967  00000-0  23453-3 0  9995
2 56893  43.0011 282.0780 0001139 270.6866  89.3846 15.02548519 15765
Source of the keplerian elements: AFSPC